Location: Passo di Treia
(43.2833°N, 13.3333°E)
Time: 19:28:17
(UTC+00:00)

Cosmos 1553 Rocket - Pass Details

Date: 09 December 2019
Orbit: 942 x 1007 km, 82.9° (Epoch: 27 January)

Event Time Altitude Azimuth Distance (km) Brightness Sun altitude
Rises 17:14:08 0° 357° (N) 3,716 6.9 -18.1°
Reaches altitude 10° 17:16:46 10° 3° (N) 2,771 6.2 -18.5°
Maximum altitude 17:22:54 47° 77° (ENE) 1,304 4.2 -19.6°
Drops below altitude 10° 17:29:02 10° 150° (SSE) 2,777 6.2 -20.7°
Sets 17:31:40 0° 156° (SSE) 3,723 6.9 -21.2°
